Location: Marquette
(46.5440°N, 87.3950°W)
Time: 06:52:42
(UTC-05:00)

Daily predictions for brighter satellites

Satellite Brightness Start Highest point End
(mag) Time Altitude Azimuth Time Altitude Azimuth Time Altitude Azimuth
SPOT 3 Rocket 3.9 17:30:24 10° SE 17:35:15 42° ENE 17:40:07 10° N
COSMOS 2406 4.4 17:29:55 10° NW 17:35:25 50° WSW 17:40:56 10° S
CZ-3B DEB 2.5 17:33:10 10° SSW 17:36:32 45° SE 17:44:32 10° ENE
Cosmos 2181 Rocket 4.1 17:30:17 10° S 17:36:39 79° E 17:43:07 10° N
COSMOS 2487 3.5 17:34:05 10° N 17:37:08 25° ENE 17:40:10 10° ESE
BREEZE-M DEB (TANK) 3.9 17:26:14 10° W 17:37:17 66° NNW 17:41:40 10° ENE
Cosmos 1833 Rocket 3.5 17:33:35 10° N 17:38:27 28° NE 17:43:16 10° ESE
USA 32 4.2 17:36:43 10° SSE 17:41:46 53° E 17:46:52 10° NNE
CZ-3A R/B 3.3 17:38:58 10° SW 17:43:18 89° NW 18:06:15 10° ENE
Cosmos 2082 Rocket 2.8 17:38:21 10° NNW 17:43:30 34° NE 17:48:38 10° ESE
CZ-2C R/B 3.6 17:39:53 10° NNE 17:44:22 78° ESE 17:48:52 10° S
Abrixas 2.4 17:42:16 10° WNW 17:45:14 85° NNE 17:48:13 10° ESE
Meteor 1-5 Rocket 4.4 17:39:53 10° NNW 17:45:21 78° W 17:50:57 10° S
Cosmos 1544 Rocket 3.6 17:44:29 10° N 17:48:59 74° E 17:53:27 10° SSE
Cosmos 1743 4.2 17:48:28 10° NNE 17:51:05 17° ENE 17:53:39 10° ESE
Timation 2 Rocket 4.4 17:44:32 10° NNW 17:51:08 49° NE 17:57:46 10° SE
Cosmos 1500 3.9 17:50:05 10° N 17:53:35 32° ENE 17:57:04 10° SE
COSMO-SKYMED 1 4.1 17:51:46 10° NE 17:54:33 16° E 17:57:19 10° SE
Cosmos 1975 Rocket 3.6 17:52:09 10° SSW 17:56:25 61° W 18:00:44 10° N
BREEZE-M DEB (TANK) 1.3 17:55:27 10° WSW 17:57:42 81° SSE 17:59:30 15° ENE
Cosmos 2263 Rocket 4.2 17:56:06 10° W 18:00:23 22° NW 18:04:41 10° N
Cosmos 1975 3.0 17:57:00 10° N 18:01:00 50° ENE 18:04:55 10° SSE
IDEFIX/ARIANE 42P 2.5 17:57:02 10° SSE 18:02:11 68° ENE 18:07:21 10° N
Cosmos 1484 Rocket 3.6 18:01:27 10° SE 18:04:34 26° ENE 18:07:43 10° N
Thor Agena Rocket 3.7 18:01:31 10° NNE 18:06:41 58° ESE 18:11:51 10° S
CZ-4 R/B 1.5 18:03:06 10° SSE 18:07:16 86° WSW 18:11:25 10° NNW
MSX 3.9 18:03:05 10° SE 18:08:40 56° ENE 18:14:17 10° N
Meteor 1-12 Rocket 4.3 18:04:22 10° N 18:10:12 83° ENE 18:16:07 10° SSE
Cosmos 2251 Rocket 4.4 18:06:55 10° NNW 18:12:09 56° WSW 18:17:20 10° S
Cosmos 1536 Rocket 3.6 18:08:39 10° S 18:13:05 65° E 18:17:32 10° NNE
MOS 1 4.3 18:07:38 10° SSE 18:13:18 90° E 18:18:59 10° NNW
Cosmos 921 Rocket 4.1 18:10:37 10° SSE 18:14:08 25° E 18:16:16 17° ENE
ISS -2.5 18:12:54 10° W 18:16:04 41° NNW 18:17:57 20° NE
SMAP 3.1 18:12:54 10° SSE 18:17:34 88° W 18:22:15 10° NNW
SL-24 DEB 4.4 18:13:48 10° NNE 18:18:26 50° E 18:22:59 10° SSE
SL-8 R/B 3.8 18:14:09 10° WSW 18:18:55 71° SSE 18:22:14 20° ENE
YAOGAN 1 2.6 18:17:54 10° SSE 18:22:14 85° WSW 18:26:36 10° NNW
Nadezhda 3 Rocket 4.2 18:17:38 10° SSE 18:23:33 48° E 18:29:33 10° NNE
Cosmos 1844 Rocket 3.6 18:18:19 10° SW 18:23:44 48° WNW 18:29:12 10° NNE
SJ-12 4.3 18:20:00 10° S 18:24:04 66° W 18:28:12 10° NNW
Cosmos 1812 3.2 18:26:28 10° SSW 18:30:17 63° W 18:34:09 10° N
CZ-3A R/B 4.2 18:15:55 10° WSW 18:32:59 58° NNW 18:36:54 19° NE
CORIOLIS 4.4 18:28:20 10° S 18:33:44 74° WSW 18:39:08 10° NNW
Cosmos 1455 Rocket 4.3 18:33:44 10° NNW 18:37:55 43° W 18:42:06 10° SSW
USA 234 3.2 18:37:48 20° NE 18:42:36 85° SE 18:49:08 10° SW
SKYMED 2 3.8 18:40:13 20° NNE 18:42:58 49° E 18:47:11 10° S
Tiangong 1 2.2 18:43:50 10° SW 18:46:32 29° SSE 18:47:00 28° SSE
Okean 1 4.1 18:47:21 10° SSW 18:51:19 52° WNW 18:55:19 10° N
Cosmos 1238 Rocket 4.4 18:49:35 10° SW 18:52:08 25° WNW 18:54:54 10° NNW
NOAA 12 4.2 18:47:22 10° SE 18:52:25 49° ENE 18:57:29 10° N
FALCON 9 R/B 4.4 18:28:30 10° WSW 18:54:00 45° S 19:00:04 17° ESE
Cosmos 2297 3.6 18:48:37 10° SSW 18:54:14 75° ESE 18:57:51 23° NNE
Cosmos 407 Rocket 3.9 18:51:40 10° N 18:56:28 38° ENE 18:57:09 36° E
NOSS 3-4 (A) 3.7 18:49:43 10° NW 18:56:39 69° NE 19:03:39 12° SE
NOSS 3-4 (C) 3.7 18:49:49 10° NW 18:56:45 68° NE 19:03:37 12° SE
Cosmos 2056 Rocket 4.1 18:53:06 10° SSE 18:57:55 35° ESE 18:58:18 35° E
Okean 1-7 Rocket 3.5 18:55:02 10° S 18:59:31 75° E 19:02:24 22° NNE
Cosmos 1346 Rocket 3.2 18:55:44 10° SSW 18:59:36 61° WNW 19:02:40 15° N
CZ-2C R/B 4.2 19:00:01 10° SSW 19:04:35 34° W 19:09:16 10° NNW
Cosmos 2278 Rocket 3.0 18:59:35 10° SW 19:05:03 49° WNW 19:09:48 14° NNE
Timation 1 Rocket 4.2 18:59:30 10° SSW 19:05:26 74° ESE 19:08:38 29° NE
NOSS 3-3 (A) 4.4 18:59:19 10° SW 19:05:33 64° NW 19:10:00 22° NNE
NOSS 3-3 (C) 4.3 18:59:25 10° SW 19:05:39 65° NW 19:10:05 22° NNE
ERBS 4.3 19:03:51 10° NW 19:05:27 19° N 19:05:27 19° N
Cosmos 1934 Rocket 3.9 19:02:56 10° N 19:09:06 67° ENE 19:15:21 10° SSE
Cosmos 1624 Rocket 4.1 19:06:05 10° S 19:11:03 48° ESE 19:11:26 47° E
METEOR-M 4.1 19:06:32 10° SSE 19:11:46 61° ENE 19:17:03 10° N
Intercosmos 25 3.9 19:11:54 10° NNW 19:15:01 47° W 19:18:12 10° S
Cosmos 1535 Rocket 4.4 19:08:42 10° N 19:15:03 90° E 19:21:17 10° S
Cosmos 1371 Rocket 4.0 19:11:06 10° S 19:16:24 66° ESE 19:17:49 47° NE
Meteor 2-8 Rocket 4.3 19:15:52 10° S 19:21:49 62° E 19:24:51 30° NNE
Cosmos 1833 Rocket 3.3 19:17:13 10° NW 19:22:43 55° WSW 19:28:11 10° S
Cosmos 1606 Rocket 3.4 19:21:09 10° N 19:25:40 85° E 19:30:08 10° S
GEOS 3 Rocket 3.5 19:23:58 34° SE 19:26:15 87° SW 19:31:24 10° NW
Cosmos 1743 4.0 19:23:28 10° NNW 19:27:08 40° W 19:30:44 10° SSW
Cosmos 2082 Rocket 3.3 19:22:22 10° NW 19:27:42 44° WSW 19:33:02 10° S
COSMO-SKYMED 1 3.2 19:28:48 26° N 19:31:03 53° WNW 19:35:16 10° SSW
FengYun 1-2 T 4.3 19:34:26 56° NE 19:34:26 56° NE 19:39:20 10° N
Meteor 1-28 Rocket 4.3 19:36:06 39° SSW 19:36:06 39° SSW 19:38:35 10° SSW
Cosmos 1821 Rocket 4.4 19:34:03 10° NNW 19:40:03 61° W 19:46:01 10° S
Cosmos 1190 Rocket 4.1 19:41:09 10° NNW 19:46:24 73° WSW 19:47:50 48° S
Meteor 1-15 Rocket 4.4 19:41:48 10° NNW 19:47:42 77° W 19:53:30 10° S
Cosmos 1025 Rocket 3.8 19:46:23 10° SSW 19:50:39 50° WNW 19:50:49 50° WNW
Cosmos 1605 Rocket 3.9 19:44:24 10° N 19:50:46 87° W 19:56:58 10° S
ISS -0.3 19:49:59 10° WNW 19:50:37 14° NW 19:50:37 14° NW
BREEZE-M R/B 3.7 19:47:01 10° W 19:55:02 70° NW 19:55:02 70° NW
Cosmos 2369 Rocket 4.5 20:04:19 10° S 20:04:41 12° S 20:04:41 12° S
CZ-3B DEB 3.6 20:05:20 10° W 20:11:03 55° N 20:13:40 45° NE
USA 234 3.9 20:25:08 45° NNW 20:25:19 45° NNW 20:31:27 10° W
BREEZE-M DEB (TANK) 4.2 20:13:50 10° WNW 20:26:35 54° NNW 20:26:35 54° NNW
